Back to catalog

IRIDE-MS2-HEO-11

AliveScienceSSO
NORAD 68983·PAYLOAD·🇰🇷 South Korea

Launched May 3, 2026 from Vandenberg Space Force Base

Loading…

Next Passes (next 24 hours)

TLE

FreshSource: Space-Track

Epoch: Sep 14, 2026, 12:44 UTC

1 68983U 26100D   26257.53097626  .00001183  00000-0  12511-3 0  9999
2 68983  97.7251 153.1915 0002777 180.8443 179.2772 14.91032093 20013

Track IRIDE-MS2-HEO-11 in real time with AllMySat

Download on the App Store